• In Belarus
  • List of Countries
  • For 7 days
  • Water Temperature
  • Satellite Maps
  • Weather Map
  • Weather Widgets
  • user-avatar
    Login

    Hourly Weather Santiago de Cuba

    Today, 22 February, Friday

    Time Temperature Precipitation Wind Pressure Humidity
    00:00 +24°C° 0 mm 1 mps 760 mmHg 83%
    01:00 +24°C° 0 mm 1 mps 760 mmHg 85%
    02:00 +23°C° 0 mm 1 mps 760 mmHg 86%
    03:00 +23°C° 0 mm 1 mps 760 mmHg 88%
    04:00 +23°C° 0 mm 1 mps 759 mmHg 90%
    05:00 +23°C° 0 mm 1 mps 760 mmHg 90%
    06:00 +23°C° 0 mm 1 mps 760 mmHg 90%
    07:00 +23°C° 0 mm 1 mps 760 mmHg 90%
    08:00 +26°C° 0 mm 2 mps 760 mmHg 77%
    09:00 +29°C° 0 mm 2 mps 761 mmHg 65%
    10:00 +31°C° 0 mm 3 mps 761 mmHg 53%
    11:00 +34°C° 0 mm 3 mps 761 mmHg 48%
    12:00 +35°C° 0 mm 3 mps 761 mmHg 43%
    13:00 +36°C° 0 mm 4 mps 761 mmHg 38%
    14:00 +35°C° 0 mm 4 mps 760 mmHg 42%
    15:00 +34°C° 0 mm 4 mps 760 mmHg 46%
    16:00 +34°C° 0 mm 4 mps 760 mmHg 50%
    17:00 +31°C° 0 mm 3 mps 760 mmHg 60%
    18:00 +28°C° 0 mm 2 mps 760 mmHg 70%
    19:00 +26°C° 0 mm 2 mps 761 mmHg 80%
    20:00 +26°C° 0 mm 1 mps 761 mmHg 82%
    21:00 +25°C° 0 mm 1 mps 761 mmHg 83%
    22:00 +25°C° 0 mm 1 mps 761 mmHg 85%
    23:00 +25°C° 0 mm 1 mps 761 mmHg 86%

    Tomorrow, 23 February, Saturday

    Time Temperature Precipitation Wind Pressure Humidity
    00:00 +24°C° 0 mm 1 mps 761 mmHg 88%
    01:00 +24°C° 0 mm 1 mps 761 mmHg 89%
    02:00 +24°C° 0 mm 1 mps 761 mmHg 90%
    03:00 +24°C° 0 mm 1 mps 760 mmHg 92%
    04:00 +23°C° 0 mm 1 mps 760 mmHg 93%
    05:00 +24°C° 0 mm 1 mps 760 mmHg 93%
    06:00 +24°C° 0 mm 1 mps 760 mmHg 92%
    07:00 +24°C° 0 mm 1 mps 761 mmHg 92%
    08:00 +26°C° 0 mm 2 mps 761 mmHg 81%
    09:00 +29°C° 0 mm 2 mps 762 mmHg 69%
    10:00 +33°C° 0 mm 3 mps 762 mmHg 57%
    11:00 +34°C° 0 mm 4 mps 762 mmHg 53%
    12:00 +35°C° 0 mm 4 mps 761 mmHg 48%
    13:00 +36°C° 0 mm 4 mps 761 mmHg 43%
    14:00 +35°C° 0 mm 4 mps 760 mmHg 46%
    15:00 +34°C° 0 mm 4 mps 760 mmHg 49%
    16:00 +34°C° 0 mm 4 mps 759 mmHg 51%
    17:00 +31°C° 0 mm 3 mps 760 mmHg 60%
    18:00 +29°C° 0 mm 3 mps 760 mmHg 69%
    19:00 +27°C° 0 mm 2 mps 760 mmHg 78%
    20:00 +27°C° 0 mm 2 mps 761 mmHg 80%
    21:00 +26°C° 0 mm 2 mps 761 mmHg 83%
    22:00 +26°C° 0 mm 1 mps 762 mmHg 86%
    23:00 +25°C° 0 mm 1 mps 761 mmHg 88%

    Day after tomorrow, 24 February, Sunday

    Time Temperature Precipitation Wind Pressure Humidity
    00:00 +25°C° 0 mm 1 mps 761 mmHg 89%
    01:00 +24°C° 0 mm 1 mps 761 mmHg 91%
    02:00 +24°C° 0 mm 1 mps 760 mmHg 92%
    03:00 +23°C° 0 mm 1 mps 760 mmHg 93%
    04:00 +23°C° 0 mm 1 mps 759 mmHg 94%
    05:00 +23°C° 0 mm 1 mps 760 mmHg 94%
    06:00 +23°C° 0 mm 1 mps 760 mmHg 93%
    07:00 +23°C° 0 mm 1 mps 761 mmHg 93%
    08:00 +26°C° 0 mm 1 mps 761 mmHg 80%
    09:00 +29°C° 0 mm 2 mps 761 mmHg 67%
    10:00 +31°C° 0 mm 2 mps 762 mmHg 54%
    11:00 +32°C° 0 mm 2 mps 761 mmHg 50%
    12:00 +34°C° 0 mm 2 mps 761 mmHg 46%
    13:00 +36°C° 0 mm 3 mps 760 mmHg 42%
    14:00 +35°C° 0 mm 3 mps 760 mmHg 46%
    15:00 +34°C° 0 mm 3 mps 759 mmHg 50%
    16:00 +33°C° 0 mm 3 mps 759 mmHg 55%
    17:00 +30°C° 0 mm 3 mps 759 mmHg 65%
    18:00 +28°C° 0 mm 2 mps 759 mmHg 75%
    19:00 +26°C° 0 mm 1 mps 760 mmHg 85%
    20:00 +26°C° 0 mm 1 mps 760 mmHg 88%
    21:00 +25°C° 0 mm 1 mps 761 mmHg 92%
    22:00 +25°C° 0 mm 1 mps 761 mmHg 95%
    23:00 +24°C° 0 mm 1 mps 761 mmHg 96%

    25 February, Monday

    Time Temperature Precipitation Wind Pressure Humidity
    00:00 +24°C° 0 mm 1 mps 760 mmHg 96%
    01:00 +24°C° 0 mm 1 mps 760 mmHg 97%
    02:00 +24°C° 0 mm 1 mps 760 mmHg 97%
    03:00 +24°C° 0 mm 1 mps 759 mmHg 97%
    04:00 +23°C° 0 mm 1 mps 759 mmHg 97%
    05:00 +23°C° 0 mm 1 mps 760 mmHg 95%
    06:00 +24°C° 0 mm 1 mps 760 mmHg 94%
    07:00 +24°C° 0 mm 1 mps 761 mmHg 93%
    08:00 +27°C° 0 mm 1 mps 761 mmHg 79%
    09:00 +30°C° 0 mm 1 mps 761 mmHg 64%
    10:00 +33°C° 0 mm 1 mps 762 mmHg 49%
    11:00 +34°C° 0 mm 1 mps 761 mmHg 45%
    12:00 +36°C° 0 mm 2 mps 761 mmHg 41%
    13:00 +37°C° 0 mm 2 mps 760 mmHg 37%
    14:00 +36°C° 0 mm 2 mps 760 mmHg 42%
    15:00 +35°C° 0 mm 2 mps 759 mmHg 46%
    16:00 +34°C° 0 mm 2 mps 759 mmHg 51%
    17:00 +31°C° 0.1 mm 2 mps 759 mmHg 59%
    18:00 +29°C° 0.1 mm 2 mps 760 mmHg 67%
    19:00 +28°C° 0.1 mm 1 mps 760 mmHg 75%
    20:00 +27°C° 0.1 mm 1 mps 760 mmHg 77%
    21:00 +27°C° 0.1 mm 1 mps 761 mmHg 79%
    22:00 +26°C° 0.1 mm 1 mps 761 mmHg 80%
    23:00 +25°C° 0 mm 1 mps 761 mmHg 83%

    26 February, Tuesday

    Time Temperature Precipitation Wind Pressure Humidity
    00:00 +24°C° 0 mm 1 mps 761 mmHg 86%
    01:00 +23°C° 0 mm 2 mps 760 mmHg 89%
    02:00 +23°C° 0 mm 2 mps 760 mmHg 90%
    03:00 +23°C° 0 mm 2 mps 760 mmHg 92%
    04:00 +23°C° 0 mm 2 mps 760 mmHg 93%
    05:00 +23°C° 0 mm 2 mps 760 mmHg 92%
    06:00 +23°C° 0 mm 2 mps 760 mmHg 91%
    07:00 +24°C° 0 mm 2 mps 761 mmHg 90%
    08:00 +26°C° 0 mm 2 mps 761 mmHg 78%
    09:00 +29°C° 0 mm 3 mps 762 mmHg 65%
    10:00 +32°C° 0 mm 4 mps 762 mmHg 53%
    11:00 +34°C° 0 mm 4 mps 761 mmHg 46%
    12:00 +35°C° 0 mm 4 mps 761 mmHg 40%
    13:00 +36°C° 0 mm 5 mps 760 mmHg 34%
    14:00 +36°C° 0 mm 5 mps 760 mmHg 35%
    15:00 +35°C° 0 mm 5 mps 760 mmHg 36%
    16:00 +35°C° 0 mm 5 mps 759 mmHg 37%
    17:00 +33°C° 0 mm 4 mps 760 mmHg 44%
    18:00 +30°C° 0 mm 4 mps 760 mmHg 51%
    19:00 +28°C° 0 mm 4 mps 760 mmHg 58%
    20:00 +27°C° 0 mm 3 mps 761 mmHg 64%
    21:00 +26°C° 0 mm 3 mps 761 mmHg 71%
    22:00 +24°C° 0 mm 2 mps 761 mmHg 78%
    23:00 +24°C° 0 mm 2 mps 761 mmHg 81%

    27 February, Wednesday

    Time Temperature Precipitation Wind Pressure Humidity
    00:00 +23°C° 0 mm 2 mps 761 mmHg 83%
    01:00 +23°C° 0 mm 2 mps 761 mmHg 86%
    02:00 +23°C° 0 mm 2 mps 760 mmHg 87%
    03:00 +21°C° 0 mm 2 mps 760 mmHg 87%
    04:00 +21°C° 0 mm 2 mps 760 mmHg 88%
    05:00 +21°C° 0 mm 2 mps 760 mmHg 87%
    06:00 +21°C° 0 mm 2 mps 760 mmHg 87%
    07:00 +23°C° 0 mm 2 mps 761 mmHg 87%
    08:00 +25°C° 0 mm 2 mps 761 mmHg 77%
    09:00 +28°C° 0 mm 3 mps 761 mmHg 67%
    10:00 +30°C° 0 mm 4 mps 761 mmHg 57%
    11:00 +33°C° 0 mm 4 mps 760 mmHg 52%
    12:00 +34°C° 0 mm 4 mps 760 mmHg 48%
    13:00 +35°C° 0 mm 4 mps 759 mmHg 43%
    14:00 +35°C° 0 mm 4 mps 759 mmHg 46%
    15:00 +34°C° 0 mm 4 mps 759 mmHg 48%
    16:00 +34°C° 0 mm 4 mps 758 mmHg 50%
    17:00 +32°C° 0.1 mm 4 mps 758 mmHg 58%
    18:00 +29°C° 0.1 mm 3 mps 759 mmHg 66%
    19:00 +27°C° 0.1 mm 3 mps 759 mmHg 73%
    20:00 +27°C° 0 mm 2 mps 759 mmHg 77%
    21:00 +26°C° 0 mm 2 mps 759 mmHg 80%
    22:00 +25°C° 0 mm 1 mps 760 mmHg 83%
    23:00 +25°C° 0 mm 1 mps 759 mmHg 85%
    Show more